Find STARLINK-37323

NORAD ID: 799500955 Int'l Des: 2026-132J Constellation: starlink operational

当前视图

正在加载3D地球...

About STARLINK-37323

STARLINK-37323 (NORAD 799500955) is a starlink constellation satellite launched Jun 8, 2026

关于 STARLINK-37323

正在加载描述...

即将过境

Passes for default location (London). Set your location on the main map for personalized predictions.

高度历史

Loading altitude history...

两行轨道根数

1 99999C 2026132J 26163.64979167 .07216000 00000-0 668100-3 0 1631
2 99999 53.1626 346.6934 0010701 280.0137 96.5932 16.08009082 14
Epoch: Jun 12, 2026 • Age: 9 hours